Regional Weather Roundup
Issued by NWS

Home | Current Version | Previous Version | Text Only | Print | Product List | Glossary On
Versions: 1 2 3 4 5 6 7 8 9 10 11 12 13 14 15 16 17 18 19 20 21 22 23 24 25 26 27 28 29 30 31 32 33 34 35 36 37 38 39 40 41 42 43 44 45 46 47 48 49 50
000
ASUS43 KMPX 020110
RWRMN
WEATHER ROUNDUP FOR MINNESOTA
NATIONAL WEATHER SERVICE TWIN CITIES/CHANHASSEN MN
700 PM CST SUN FEB 01 2015


NOTE: "FAIR" INDICATES FEW OR NO CLOUDS BELOW 12,000 FEET WITH NO
SIGNIFICANT WEATHER AND/OR OBSTRUCTIONS TO VISIBILITY. N/A MEANS
CURRENT SKY AND/OR WEATHER CONDITIONS ARE NOT AVAILABLE.

MNZ060>063-068>070-020200-
   Twin Cities Metro

CITY           SKY/WX    TMP DP  RH WIND       PRES   REMARKS
TWIN CITIES    PTCLDY    12  -2  53 N14G23    30.25R WCI  -3
ST PAUL        PTCLDY    13   0  56 N14       30.27R WCI  -2
CRYSTAL        PTCLDY    13  -6  42 N13       30.25R WCI  -2
BLAINE         CLEAR     12  -2  52 N13       30.25R WCI  -3
LAKEVILLE      PTCLDY    10   0  61 N13       30.22R WCI  -5
EDEN PRAIRIE   PTCLDY    12  -3  51 N14G22    30.23R WCI  -3
SOUTH ST PAUL  PTCLDY    13   1  58 N14G22    30.24R WCI  -2
LAKE ELMO      FAIR      12   1  62 N13       30.24R WCI  -3
$$
MNZ001>005-007-008-013>017-022>024-027-028-020200-
   Northwest Minnesota

CITY           SKY/WX    TMP DP  RH WIND       PRES   REMARKS
BEMIDJI        CLEAR     -7 -15  68 NW6       30.31S WCI -20
HALLOCK        PTCLDY    -8 -15  71 SE6       30.37F WCI -21
ROSEAU         PTCLDY    -6 -15  65 SW5       30.34F WCI -17
WARROAD        CLEAR     -8 -17  65 SW6       30.33F WCI -21
THIEF RVR FALL CLEAR     -6  -9  84 W3        30.35F
CROOKSTON      CLEAR     -2  -9  71 CALM      30.41F
FOSSTON        CLEAR     -8 -15  71 CALM      30.34F
DETROIT LAKES  CLEAR      0  -8  71 NW7       30.34S WCI -13
MOORHEAD       FAIR       0  -9  65 N5        30.40F WCI -10
PARK RAPIDS    CLEAR     -2 -13  59 NW7       30.29S WCI -15
MAHNOMEN       FAIR      -2 -10  69 NW3       30.34F
$$
MNZ006-009>011-018-025>026-020200-
   North Central Minnesota

CITY           SKY/WX    TMP DP  RH WIND       PRES   REMARKS
BAUDETTE       PTCLDY   -11 -19  68 CALM      30.30F
FLAG ISLAND    PTCLDY   -11 -17  77 S3        30.31F
INTL FALLS     MOCLDY   -19 -23  81 CALM      30.30F
WASKISH        CLEAR    -11 -17  77 CALM      30.32F
BIG FORK       CLEAR     -9 -18  64 CALM      30.30R
LONGVILLE      CLEAR     -2 -13  60 NW5       30.29S WCI -12
GRAND RAPIDS   CLEAR      0 -13  55 N3        30.26S
CRANE LAKE     PTCLDY   -18 -24  76 CALM      30.33S
ORR            FAIR     -11 -20  64 CALM      30.26S
COOK           CLEAR     -6 -18  54 CALM      30.28S
WALKER         FAIR      -3 -16  54 CALM      30.31S
$$
MNZ012-019>021-037-020200-
   Northeast Minnesota

CITY           SKY/WX    TMP DP  RH WIND       PRES   REMARKS
DULUTH         CLEAR      1 -15  47 N8        30.23S WCI -13
ELY            CLEAR     -9 -18  64 NW6       30.25S WCI -23
HIBBING        CLEAR     -7 -18  59 CALM      30.26S
EVELETH        CLEAR     -4 -15  59 CALM      30.27S
DULUTH HARBOR  CLEAR      9  -8  47 N14       30.31S WCI  -8
TWO HARBORS    CLEAR      3 -11  51 NW5       30.24S WCI  -6
SILVER BAY     CLEAR      1 -15  46 CALM      30.24S
GRAND MARAIS     N/A      3 -11  52 CALM      30.30F
G MARAIS ARPRT PTCLDY    -6 -18  54 NW7       30.16F WCI -20
$$
MNZ029>031-032-039>041-046>048-054>057-064-020200-
   West Central Minnesota

CITY           SKY/WX    TMP DP  RH WIND       PRES   REMARKS
FERGUS FALLS   CLEAR      1  -9  60 N8        30.39S WCI -12
WHEATON        CLEAR      1  -9  60 NW9       30.40S WCI -14
MORRIS         CLEAR      5  -6  61 NW13      30.34R WCI -12
ALEXANDRIA     CLEAR      5  -8  55 NW7       30.29S WCI  -7
ELBOW LAKE     FAIR       2  -8  62 N9        30.33R WCI -12
WADENA         CLEAR      0 -11  60 N6        30.29S WCI -12
GLENWOOD       CLEAR      7  -9  47 N7        30.29S WCI  -5
APPLETON       CLEAR      7  -6  56 NW13      30.35R WCI  -9
BENSON         CLEAR      7  -9  47 N9        30.33R WCI  -7
ORTONVILLE     CLEAR      3  -9  55 N14       30.36R WCI -15
MADISON        CLEAR      9  -2  61 N17       30.35S WCI -10
WILLMAR        FAIR      10  -9  40 N12       30.29S WCI  -4
$$
MNZ033>034-036-042>043-049>051-058-059-020200-
   Central Minnesota

CITY           SKY/WX    TMP DP  RH WIND       PRES   REMARKS
ST CLOUD       FAIR       7 -10  46 N7        30.28S WCI  -5
SAUK CENTRE    FAIR       6 -10  48 N7        30.29S WCI  -6
PAYNESVILLE    CLEAR      6  -9  50 NW5       30.29R WCI  -3
AITKIN         CLEAR      3 -11  51 N5        30.28R WCI  -6
PINE RIVER     CLEAR      0 -11  60 NW3       30.32S
BRAINERD       CLEAR      2 -12  52 N8        30.29S WCI -12
STAPLES        CLEAR      0 -13  55 N3        30.29S
LONG PRAIRIE   FAIR       5  -9  51 NW5       30.29S WCI  -4
LITTLE FALLS   CLEAR      5 -13  43 N6        30.30S WCI  -6
LITCHFIELD     CLEAR     10  -8  44 N10       30.28R WCI  -3
BUFFALO        PTCLDY    10 -10  40 N7        30.28S WCI  -1
MAPLE LAKE     PTCLDY    10  -6  47 N13       30.28R WCI  -5
$$
MNZ037-044-045-052-053-020200-
   East Central Minnesota

CITY           SKY/WX    TMP DP  RH WIND       PRES   REMARKS
PRINCETON      CLEAR      9  -9  43 NW12      30.27S WCI  -6
MORA           CLEAR      7 -13  40 VRB3      30.29S
CAMBRIDGE      CLEAR     10  -6  48 N7        30.26R WCI   0
RUSH CITY      PTCLDY     8  -8  46 N8        30.27S WCI  -4
MOOSE LAKE     CLEAR      5 -13  43 N7        30.26S WCI  -7
HINCKLEY       FAIR       9  -8  47 N7        30.28R WCI  -3
CLOQUET        CLEAR      1 -15  46 NW9       30.25S WCI -14
MCGREGOR       CLEAR      3  -9  55 NW6       30.28S WCI  -8
$$
MNZ071>073-080-081-089-090-097-098-020200-
   Southwest Minnesota

CITY           SKY/WX    TMP DP  RH WIND       PRES   REMARKS
MONTEVIDEO     CLEAR      7  -2  66 N13       30.34R WCI  -9
GRANITE FALLS  CLEAR      9  -1  65 NW12      30.33R WCI  -6
CANBY          FAIR       5  -4  65 NW10      30.34S WCI -10
MARSHALL       CLEAR      7  -6  56 N20       30.31R WCI -13
OLIVIA         CLEAR     10  -2  56 N14       30.28S WCI  -5
PIPESTONE      CLEAR      5  -2  72 N12G18    30.25S WCI -11
WINDOM         PTCLDY     9   1  72 NW14      30.23R WCI  -8
WORTHINGTON    PTCLDY    18  -2  41 NW18      30.24R WCI   2
JACKSON        PTCLDY    12   3  67 N10       30.21R WCI  -1
TRACY          PTCLDY     8   0  71 NW17G24   30.28R WCI -11
SLAYTON        PTCLDY     5  -3  71 NW18      30.25R WCI -15
$$
MNZ065>067-074>077-082>085-091>093-020200-
   South Central Minnesota

CITY           SKY/WX    TMP DP  RH WIND       PRES   REMARKS
MANKATO        MOCLDY    12   1  62 N12       30.22R WCI  -2
NEW ULM        PTCLDY    10   0  61 N13       30.25R WCI  -5
ST JAMES       FAIR      12   1  62 NW13      30.25R WCI  -3
FAIRMONT       PTCLDY    10   1  67 N14       30.19R WCI  -5
GLENCOE        PTCLDY    12  -3  50 N10G21    30.25R WCI  -1
FARIBAULT      PTCLDY    10   1  67 N5        30.21R WCI   2
OWATONNA       PTCLDY    12   1  62 N12       30.18R WCI  -2
WASECA         PTCLDY    12   5  73 N9        30.21R WCI   0
ALBERT LEA     FAIR      10   3  72 N12       30.16R WCI  -4
$$
MNZ078>079-086>088-094>096-020200-
   Southeast Minnesota

CITY           SKY/WX    TMP DP  RH WIND       PRES   REMARKS
ROCHESTER      PTCLDY    11   3  70 N17       30.13R WCI  -6
RED WING       PTCLDY    12   0  57 N5        30.22R WCI   4
STANTON        PTCLDY    12   2  64 N9        30.20R WCI   0
DODGE CENTER   PTCLDY    10   3  72 N13       30.14R WCI  -5
WINONA         CLOUDY    16   3  57 N5        30.18R WCI   9
AUSTIN         PTCLDY    10   3  72 N10G18    30.14R WCI  -3
PRESTON        MOCLDY    11   1  63 N14       30.11R WCI  -5
$$
ABBREVIATIONS USED IN REMARKS
   TC - TEMPERATURES IN CELSIUS
  WCI - WIND CHILL INDEX
   HX - HEAT INDEX
  VSB - VISIBILITY
$$


USA.gov is the U.S. government's official web portal to all federal, state and local government web resources and services.